GW5117 Weather Reports


time (UTC)temp
C
wind
direction
speed
KPH
gust
KPH
rain 1hr
cm
rain 24hr
cm
rain mn
cm
humidity
%
barometer
mb
20260906124243 21 121 0.0 0.0 0.00 0.00 0.00 99 1017.4
20260906123741 21 121 0.0 0.0 0.00 0.00 0.00 99 1017.4
20260906123236 21 122 0.0 0.0 0.00 0.00 0.00 99 1017.5
20260906122731 21 123 0.0 0.0 0.00 0.00 0.00 99 1017.6
20260906122226 21 124 0.0 0.0 0.00 0.00 0.00 99 1017.4
20260906121723 21 124 0.0 0.0 0.00 0.00 0.00 99 1017.3
20260906121219 20 121 0.0 0.0 0.00 0.00 0.00 99 1017.1
20260906120714 20 121 0.0 3.2 0.00 0.00 0.00 99 1017.4
20260906120210 20 122 0.0 0.0 0.00 0.00 0.00 99 1017.1
20260906115706 20 122 0.0 0.0 0.00 0.00 0.00 99 1017.0
20260906115201 20 122 0.0 0.0 0.00 0.00 0.00 99 1017.1
20260906114700 20 122 0.0 0.0 0.00 0.00 0.00 99 1016.8
20260906114156 20 124 0.0 0.0 0.00 0.00 0.00 99 1016.8
20260906113655 20 121 1.6 1.6 0.00 0.00 0.00 99 1016.8
20260906113155 20 121 0.0 0.0 0.00 0.00 0.00 99 1016.8
20260906112654 20 121 0.0 0.0 0.00 0.00 0.00 99 1016.7
20260906112152 20 117 1.6 3.2 0.00 0.00 0.00 99 1016.6
20260906111650 20 124 0.0 1.6 0.00 0.00 0.00 99 1016.2
20260906111145 20 123 0.0 0.0 0.00 0.00 0.00 99 1016.4
20260906110640 20 120 1.6 3.2 0.00 0.00 0.00 99 1016.2
20260906110136 20 123 0.0 1.6 0.00 0.00 0.00 99 1016.2
20260906105629 20 121 0.0 1.6 0.00 0.00 0.00 99 1016.1
20260906105126 20 121 1.6 1.6 0.00 0.00 0.00 99 1015.9
20260906104625 20 121 0.0 3.2 0.00 0.00 0.00 99 1016.0
20260906104120 20 125 0.0 1.6 0.00 0.00 0.00 99 1015.9
20260906103618 20 122 0.0 1.6 0.00 0.00 0.00 99 1015.7
20260906103113 20 123 0.0 1.6 0.00 0.00 0.00 99 1015.6
20260906102608 20 124 0.0 4.8 0.00 0.00 0.00 99 1015.8
20260906102102 20 125 3.2 3.2 0.00 0.00 0.00 99 1015.6
20260906101557 20 121 1.6 3.2 0.00 0.00 0.00 99 1015.7
20260906101051 20 120 0.0 1.6 0.00 0.00 0.00 99 1015.8
20260906100548 20 120 1.6 1.6 0.00 0.00 0.00 99 1015.5
20260906100047 20 122 0.0 3.2 0.00 0.00 0.00 99 1015.6
20260906095547 20 125 0.0 0.0 0.00 0.00 0.00 99 1015.6
20260906095043 20 123 0.0 0.0 0.00 0.00 0.00 99 1015.4
20260906094541 20 124 0.0 0.0 0.00 0.00 0.00 99 1015.7
20260906094038 20 124 0.0 0.0 0.00 0.00 0.00 99 1015.6
20260906093533 20 124 0.0 0.0 0.00 0.00 0.00 99 1015.8
20260906093028 20 124 0.0 0.0 0.00 0.00 0.00 99 1015.6
20260906092523 20 124 0.0 0.0 0.00 0.00 0.00 99 1015.7
20260906092018 20 124 0.0 0.0 0.00 0.00 0.00 99 1015.7
20260906091514 20 124 0.0 0.0 0.00 0.00 0.00 99 1015.6
20260906091010 20 124 0.0 0.0 0.00 0.00 0.00 99 1015.8
20260906090511 20 124 0.0 0.0 0.00 0.00 0.00 99 1015.7
20260906090010 20 124 0.0 0.0 0.00 0.00 0.00 99 1015.8
20260906085510 19 124 0.0 0.0 0.00 0.00 0.00 99 1015.6
20260906085010 19 124 0.0 0.0 0.00 0.00 0.00 99 1015.7
20260906084509 19 124 0.0 0.0 0.00 0.00 0.00 99 1015.7
20260906084008 19 124 0.0 0.0 0.00 0.00 0.00 99 1015.7
20260906083504 19 124 0.0 0.0 0.00 0.00 0.00 99 1015.6
20260906083003 19 124 0.0 0.0 0.00 0.00 0.00 99 1015.7
20260906082459 19 124 0.0 0.0 0.00 0.00 0.00 99 1015.6
20260906081954 19 124 0.0 0.0 0.00 0.00 0.00 99 1015.5
20260906081449 19 124 0.0 0.0 0.00 0.00 0.00 99 1015.6
20260906080945 18 124 0.0 0.0 0.00 0.00 0.00 99 1015.6
20260906080442 18 124 0.0 0.0 0.00 0.00 0.00 99 1015.7
20260906075937 18 124 0.0 0.0 0.00 0.00 0.00 99 1015.6
20260906075432 18 124 0.0 0.0 0.00 0.00 0.00 99 1015.5
20260906074927 19 124 0.0 0.0 0.00 0.00 0.00 99 1015.6
20260906074427 19 124 0.0 0.0 0.00 0.00 0.00 99 1015.5
20260906073925 19 124 0.0 0.0 0.00 0.00 0.00 99 1015.7
20260906073420 18 124 0.0 0.0 0.00 0.00 0.00 99 1015.6
20260906072917 18 124 0.0 0.0 0.00 0.00 0.00 99 1015.5
20260906072412 18 124 0.0 0.0 0.00 0.00 0.00 99 1015.6
20260906071908 19 124 0.0 0.0 0.00 0.00 0.00 99 1015.5
20260906071403 19 124 0.0 0.0 0.00 0.00 0.00 99 1015.5
20260906070859 19 124 0.0 0.0 0.00 0.00 0.00 99 1015.5
20260906070355 19 124 0.0 0.0 0.00 0.00 0.00 99 1015.6
20260906065850 19 124 0.0 0.0 0.00 0.00 0.00 99 1015.8
20260906065344 19 124 0.0 0.0 0.00 0.00 0.00 99 1015.6
20260906064840 19 124 0.0 0.0 0.00 0.00 0.00 99 1015.4
20260906064336 19 124 0.0 0.0 0.00 0.00 0.00 99 1015.8
20260906063830 19 124 0.0 0.0 0.00 0.00 0.00 99 1015.7
20260906063326 19 124 0.0 0.0 0.00 0.00 0.00 99 1015.6
20260906062821 19 124 0.0 0.0 0.00 0.00 0.00 99 1015.6
20260906062320 19 124 0.0 0.0 0.00 0.00 0.00 99 1015.6
20260906061816 19 124 0.0 0.0 0.00 0.00 0.00 99 1015.8
20260906061313 19 124 0.0 0.0 0.00 0.00 0.00 99 1015.6
20260906060812 19 124 0.0 0.0 0.00 0.00 0.00 99 1015.6
20260906060311 19 124 0.0 0.0 0.00 0.00 0.00 99 1015.7
20260906055806 19 124 0.0 0.0 0.00 0.00 0.00 99 1015.9
20260906055301 19 124 0.0 0.0 0.00 0.00 0.00 99 1015.7
20260906054756 19 124 0.0 0.0 0.00 0.00 0.00 99 1015.7
20260906054252 19 124 0.0 0.0 0.00 0.00 0.00 99 1015.7
20260906053748 19 124 0.0 0.0 0.00 0.00 0.00 99 1015.7
20260906053244 20 124 0.0 0.0 0.00 0.00 0.00 99 1015.6
20260906052738 20 124 0.0 0.0 0.00 0.00 0.00 99 1015.6
20260906052235 20 124 0.0 0.0 0.00 0.00 0.00 99 1015.7
20260906051731 20 124 0.0 0.0 0.00 0.00 0.00 99 1015.7
20260906051231 20 124 0.0 0.0 0.00 0.00 0.00 99 1015.5
20260906050726 20 124 0.0 0.0 0.00 0.00 0.00 99 1015.6
20260906050222 20 124 0.0 0.0 0.00 0.00 0.00 99 1015.5
20260906045720 20 124 0.0 0.0 0.00 0.00 0.00 99 1015.5
20260906045215 20 124 0.0 0.0 0.00 0.00 0.00 99 1015.4
20260906044711 20 124 0.0 0.0 0.00 0.00 0.00 99 1015.5
20260906044206 20 124 0.0 0.0 0.00 0.00 0.00 99 1015.7
20260906043702 20 124 0.0 0.0 0.00 0.00 0.00 99 1015.4
20260906043157 20 124 0.0 0.0 0.00 0.00 0.00 99 1015.3
20260906042657 20 124 0.0 0.0 0.00 0.00 0.00 99 1015.6
20260906042150 20 123 0.0 0.0 0.00 0.00 0.00 99 1015.5
20260906041646 20 123 0.0 0.0 0.00 0.00 0.00 99 1015.3
20260906041141 20 123 0.0 0.0 0.00 0.00 0.00 99 1015.4
20260906040632 20 124 0.0 0.0 0.00 0.00 0.00 99 1015.4
20260906040127 20 123 0.0 0.0 0.00 1.22 1.22 99 1015.5
20260906035622 20 122 0.0 0.0 0.00 1.22 1.22 99 1015.3
20260906035118 20 122 0.0 0.0 0.00 1.22 1.22 99 1015.5
20260906034617 20 122 0.0 0.0 0.00 1.22 1.22 99 1015.6
20260906034112 20 122 0.0 0.0 0.00 1.22 1.22 99 1015.6
20260906033608 20 122 0.0 0.0 0.00 1.22 1.22 99 1015.9
20260906033103 20 120 0.0 0.0 0.00 1.22 1.22 99 1015.9
20260906032559 20 120 0.0 0.0 0.00 1.22 1.22 99 1015.7
20260906032059 20 120 0.0 0.0 0.00 1.22 1.22 99 1015.8
20260906031554 20 120 0.0 0.0 0.00 1.22 1.22 99 1015.9
20260906031050 20 120 0.0 0.0 0.00 1.22 1.22 99 1015.9
20260906030549 20 120 0.0 0.0 0.00 1.22 1.22 99 1016.0
20260906030049 20 120 0.0 0.0 0.00 1.22 1.22 99 1016.1
20260906025543 20 120 0.0 0.0 0.00 1.22 1.22 99 1016.2
20260906025041 20 120 0.0 0.0 0.00 1.22 1.22 99 1016.2
20260906024537 20 121 0.0 0.0 0.00 1.22 1.22 99 1016.3
20260906024037 20 121 0.0 0.0 0.00 1.22 1.22 99 1016.2
20260906023533 20 122 0.0 0.0 0.00 1.22 1.22 99 1016.1
20260906023028 20 122 0.0 0.0 0.00 1.22 1.22 99 1016.1
20260906022523 21 121 0.0 0.0 0.00 1.22 1.22 99 1015.9
20260906022019 21 122 0.0 1.6 0.00 1.22 1.22 99 1015.9
20260906021514 20 117 0.0 1.6 0.00 1.22 1.22 99 1016.1
20260906021009 20 118 0.0 0.0 0.00 1.22 1.22 99 1016.0
20260906020507 20 118 0.0 0.0 0.00 1.22 1.22 99 1016.0
20260906020007 20 118 0.0 0.0 0.00 1.22 1.22 99 1016.1
20260906015501 20 119 0.0 0.0 0.00 1.22 1.22 99 1015.8
20260906015000 20 119 0.0 0.0 0.00 1.22 1.22 99 1015.7
20260906014455 20 121 0.0 0.0 0.00 1.22 1.22 99 1015.7
20260906013951 20 119 0.0 0.0 0.00 1.22 1.22 99 1015.9
20260906013446 21 120 0.0 0.0 0.00 1.22 1.22 99 1015.5
20260906012942 21 120 0.0 0.0 0.00 1.22 1.22 99 1015.4
20260906012436 21 120 0.0 0.0 0.00 1.22 1.22 99 1015.5
20260906011936 21 115 0.0 0.0 0.00 1.22 1.22 99 1015.4
20260906011431 21 115 0.0 0.0 0.00 1.22 1.22 99 1015.5
20260906010926 21 115 0.0 0.0 0.00 1.22 1.22 99 1015.2
20260906010422 21 111 0.0 0.0 0.00 1.22 1.22 99 1015.3
20260906005918 21 132 0.0 0.0 0.00 1.22 1.22 99 1015.1
20260906005417 21 130 0.0 0.0 0.00 1.22 1.22 99 1015.2
20260906004915 21 129 0.0 0.0 0.00 1.22 1.22 99 1014.9
20260906004410 21 140 0.0 0.0 0.00 1.22 1.22 99 1015.0
20260906003906 21 95 0.0 0.0 0.00 1.22 1.22 99 1015.0
20260906003401 21 95 0.0 0.0 0.00 1.22 1.22 99 1014.7
20260906002857 21 95 0.0 0.0 0.00 1.22 1.22 99 1014.7
20260906002355 21 95 0.0 0.0 0.00 1.22 1.22 99 1014.8
20260906001851 22 95 0.0 0.0 0.00 1.22 1.22 99 1014.9
20260906001347 22 93 0.0 0.0 0.00 1.22 1.22 99 1014.9
20260906000842 22 93 0.0 0.0 0.00 1.22 1.22 99 1014.8
20260906000337 22 93 0.0 0.0 0.00 1.22 1.22 99 1014.9
20260905235836 22 93 0.0 0.0 0.00 1.22 1.22 99 1015.0
20260905235331 22 93 0.0 0.0 0.00 1.22 1.22 99 1015.0
20260905234826 22 93 0.0 0.0 0.00 1.22 1.22 98 1015.1
20260905234321 22 93 0.0 0.0 0.00 1.22 1.22 98 1014.8
20260905233816 22 93 0.0 0.0 0.00 1.22 1.22 98 1015.0
20260905233311 22 93 0.0 0.0 0.00 1.22 1.22 98 1015.0
20260905232810 23 93 0.0 0.0 0.00 1.22 1.22 97 1015.0
20260905232307 23 93 0.0 0.0 0.00 1.22 1.22 97 1014.9
20260905231802 23 93 0.0 0.0 0.00 1.22 1.22 96 1014.8
20260905231257 23 93 0.0 0.0 0.00 1.22 1.22 96 1015.0
20260905230753 23 93 0.0 0.0 0.00 1.22 1.22 95 1014.9
20260905230251 23 93 0.0 0.0 0.00 1.22 1.22 95 1014.8
20260905225751 23 93 0.0 0.0 0.00 1.22 1.22 94 1015.0
20260905225246 23 93 0.0 0.0 0.00 1.22 1.22 94 1014.8
20260905224745 24 94 0.0 0.0 0.00 1.22 1.22 93 1014.9
20260905224241 24 94 0.0 0.0 0.00 1.22 1.22 93 1014.9
20260905223737 24 96 0.0 0.0 0.00 1.22 1.22 92 1014.7
20260905223234 24 96 0.0 0.0 0.00 1.22 1.22 92 1015.0
20260905222729 25 95 0.0 1.6 0.00 1.22 1.22 91 1015.0
20260905222228 25 95 0.0 0.0 0.00 1.22 1.22 89 1015.3
20260905221724 25 97 0.0 1.6 0.00 1.22 1.22 89 1015.1
20260905221221 25 96 1.6 3.2 0.00 1.22 1.22 87 1015.0
20260905220717 25 95 0.0 0.0 0.00 1.22 1.22 89 1015.1
20260905220212 26 95 0.0 0.0 0.00 1.22 1.22 88 1015.1
20260905215712 26 95 0.0 1.6 0.00 1.22 1.22 87 1015.1
20260905215208 26 95 0.0 1.6 0.00 1.22 1.22 85 1015.0
20260905214703 26 95 1.6 3.2 0.00 1.22 1.22 82 1014.8
20260905214158 27 94 1.6 3.2 0.00 1.22 1.22 80 1014.9
20260905213653 27 94 0.0 0.0 0.00 1.22 1.22 73 1014.8
20260905213149 28 94 0.0 1.6 0.00 1.22 1.22 71 1014.7
20260905212644 28 93 1.6 3.2 0.00 1.22 1.22 73 1014.8
20260905212144 27 94 1.6 1.6 0.00 1.22 1.22 75 1014.7
20260905211638 27 94 0.0 1.6 0.00 1.22 1.22 78 1014.7
20260905211134 27 96 1.6 1.6 0.00 1.22 1.22 78 1014.7
20260905210630 27 95 0.0 0.0 0.00 1.22 1.22 82 1014.6
20260905210125 26 95 0.0 0.0 0.00 1.22 1.22 86 1014.7
20260905205625 26 94 0.0 0.0 0.00 1.22 1.22 85 1014.8
20260905205124 26 95 0.0 1.6 0.00 1.22 1.22 85 1014.7
20260905204623 26 96 0.0 3.2 0.00 1.22 1.22 84 1014.6
20260905204119 27 96 1.6 1.6 0.00 1.22 1.22 81 1014.8
20260905203619 27 95 0.0 1.6 0.00 1.22 1.22 79 1014.9
20260905203114 27 93 0.0 6.4 0.00 1.22 1.22 75 1014.7
20260905202609 28 94 1.6 3.2 0.00 1.22 1.22 74 1014.8
20260905202104 28 92 3.2 4.8 0.00 1.22 1.22 75 1014.9
20260905201600 27 92 3.2 3.2 0.00 1.22 1.22 79 1014.9
20260905201100 27 94 0.0 0.0 0.00 1.22 1.22 81 1015.0
20260905200555 27 94 0.0 0.0 0.00 1.22 1.22 81 1014.9
20260905200050 27 94 0.0 1.6 0.00 1.22 1.22 80 1014.9
20260905195543 27 93 1.6 1.6 0.00 1.22 1.22 80 1015.1
20260905195039 26 94 0.0 1.6 0.00 1.22 1.22 82 1015.0
20260905194539 26 93 0.0 3.2 0.00 1.22 1.22 84 1015.1
20260905194038 26 94 0.0 0.0 0.00 1.22 1.22 83 1015.1
20260905193533 27 94 1.6 1.6 0.00 1.22 1.22 82 1015.2
20260905193029 27 95 0.0 0.0 0.00 1.22 1.22 81 1015.4
20260905192524 27 94 0.0 1.6 0.00 1.22 1.22 77 1015.4
20260905192020 28 95 0.0 3.2 0.00 1.22 1.22 75 1015.4
20260905191518 27 94 0.0 1.6 0.00 1.22 1.22 72 1015.7
20260905191018 28 94 1.6 4.8 0.00 1.22 1.22 72 1015.5
20260905190516 28 93 0.0 3.2 0.00 1.22 1.22 71 1015.8
20260905190015 27 94 1.6 1.6 0.00 1.22 1.22 72 1015.7
20260905185510 27 94 1.6 3.2 0.00 1.22 1.22 74 1015.8
20260905185009 27 95 0.0 1.6 0.00 1.22 1.22 75 1016.0
20260905184504 27 96 1.6 3.2 0.00 1.22 1.22 76 1016.0
20260905184003 27 96 1.6 4.8 0.00 1.22 1.22 76 1015.9
20260905183503 27 96 1.6 3.2 0.00 1.22 1.22 78 1016.0
20260905183003 27 95 0.0 1.6 0.00 1.22 1.22 76 1016.0
20260905182502 27 95 0.0 4.8 0.00 1.22 1.22 76 1016.1
20260905181958 27 95 1.6 3.2 0.00 1.22 1.22 77 1016.1
20260905181453 26 95 0.0 0.0 0.00 1.22 1.22 84 1016.3
20260905180952 27 100 1.6 6.4 0.00 1.22 1.22 79 1016.3
20260905180452 27 91 3.2 3.2 0.00 1.22 1.22 79 1016.1
20260905175947 27 93 0.0 0.0 0.00 1.22 1.22 79 1016.2
20260905175446 26 98 0.0 1.6 0.00 1.22 1.22 80 1016.2
20260905174942 26 95 0.0 0.0 0.00 1.22 1.22 76 1016.1
20260905174437 25 94 1.6 1.6 0.00 1.22 1.22 81 1016.2
20260905173933 25 93 1.6 3.2 0.00 1.22 1.22 83 1016.2
20260905173429 25 93 1.6 3.2 0.00 1.22 1.22 82 1016.1
20260905172925 26 96 0.0 1.6 0.00 1.22 1.22 81 1016.4
20260905172422 25 97 1.6 1.6 0.00 1.22 1.22 85 1016.3
20260905171918 25 102 1.6 3.2 0.00 1.22 1.22 84 1016.3
20260905171415 25 93 0.0 3.2 0.00 1.22 1.22 91 1016.6
20260905170911 25 94 0.0 1.6 0.00 1.22 1.22 85 1016.6
20260905170407 25 94 0.0 0.0 0.00 1.22 1.22 90 1016.7
20260905165906 25 94 0.0 3.2 0.00 1.22 1.22 91 1016.9
20260905165401 24 93 0.0 1.6 0.00 1.22 1.22 90 1017.0
20260905164855 25 93 0.0 1.6 0.00 1.22 1.22 88 1017.3
20260905164350 25 91 1.6 3.2 0.00 1.22 1.22 87 1017.3
20260905163846 25 93 0.0 0.0 0.00 1.22 1.22 86 1017.6
20260905163342 25 93 0.0 3.2 0.00 1.22 1.22 87 1017.7
20260905162838 24 94 1.6 3.2 0.00 1.22 1.22 88 1017.9
20260905162337 24 95 0.0 0.0 0.00 1.22 1.22 94 1017.8
20260905161832 23 94 0.0 0.0 0.00 1.22 1.22 96 1017.6
20260905161332 23 93 0.0 0.0 0.00 1.22 1.22 97 1017.5
20260905160830 23 94 0.0 0.0 0.00 1.22 1.22 96 1017.5
20260905160325 23 95 0.0 0.0 0.00 1.22 1.22 96 1017.6
20260905155819 23 94 0.0 0.0 0.00 1.22 1.22 95 1017.6
20260905155318 23 92 0.0 3.2 0.00 1.22 1.22 91 1017.7
20260905154813 24 93 0.0 0.0 0.00 1.22 1.22 92 1017.8
20260905154309 23 93 0.0 4.8 0.00 1.22 1.22 94 1017.8
20260905153804 23 91 3.2 3.2 0.00 1.22 1.22 92 1017.7
20260905153300 23 94 0.0 0.0 0.00 1.22 1.22 97 1017.8
20260905152754 23 93 0.0 0.0 0.00 1.22 1.22 99 1017.7
20260905152253 22 93 0.0 0.0 0.00 1.22 1.22 99 1017.7
20260905151753 22 93 1.6 1.6 0.00 1.22 1.22 99 1017.5
20260905151249 22 95 0.0 0.0 0.00 1.22 1.22 99 1017.5
20260905150744 22 93 0.0 1.6 0.00 1.22 1.22 99 1017.4
20260905150243 22 92 1.6 3.2 0.00 1.22 1.22 99 1017.3
20260905145740 22 95 0.0 1.6 0.00 1.22 1.22 99 1017.2
20260905145236 22 91 3.2 3.2 0.00 1.22 1.22 99 1017.0
20260905144734 21 89 3.2 4.8 0.00 1.22 1.22 99 1016.7
20260905144230 22 94 0.0 0.0 0.00 1.22 1.22 99 1016.4
20260905143723 22 93 1.6 3.2 0.00 1.22 1.22 99 1016.3
20260905143223 21 99 0.0 1.6 0.00 1.22 1.22 99 1015.8
20260905142721 22 109 3.2 3.2 0.00 1.22 1.22 99 1015.7
20260905142216 22 95 0.0 1.6 0.00 1.22 1.22 99 1015.9
20260905141712 21 100 1.6 3.2 0.00 1.22 1.22 99 1016.2
20260905141208 21 98 0.0 1.6 0.00 1.22 1.22 99 1016.4
20260905140702 21 101 1.6 1.6 0.00 1.22 1.22 99 1016.4
20260905140157 21 97 0.0 0.0 0.00 1.22 1.22 99 1016.2
20260905135651 21 98 0.0 0.0 0.00 1.22 1.22 99 1016.3
20260905135142 21 97 0.0 0.0 0.00 1.22 1.22 99 1016.6
20260905134641 21 99 0.0 0.0 0.00 1.22 1.22 99 1017.2
20260905134140 21 96 0.0 0.0 0.00 1.22 1.22 99 1016.9
20260905133636 21 95 0.0 1.6 0.00 1.22 1.22 99 1017.4
20260905133135 21 98 0.0 0.0 0.00 1.22 1.22 99 1017.0
20260905132635 21 98 0.0 0.0 0.00 1.22 1.22 99 1017.2
20260905132130 21 98 0.0 0.0 0.00 1.22 1.22 99 1017.0
20260905131626 21 98 0.0 0.0 0.00 1.22 1.22 99 1017.4
20260905131121 20 98 0.0 0.0 0.00 1.22 1.22 99 1017.6
20260905130621 20 97 0.0 0.0 0.00 1.22 1.22 99 1017.5
20260905130115 20 98 0.0 0.0 0.00 1.22 1.22 99 1017.6
20260905125614 20 98 0.0 0.0 0.00 1.22 1.22 99 1017.6
20260905125110 20 96 0.0 0.0 0.00 1.22 1.22 99 1017.5